Weather in Cap Cana

Dominican Republic     18°35′58″N   68°25′05″W
temp.,
°C
wind,
m/s
gust,
m/s
humid.,
%
clouds,
%
prec.,
mm/h
press.,
hPa
HPBL,
m
12 april, mon
mon1223:00+20ene127914 0.0 101467
02:00+20sw018726 0.0 101348
05:00+20nnw118581 0.0 101342
08:00+24sse12675 0.0 1015283
11:00+29sse434957 0.0 10141535
14:00+29sse5444100 0.0 10121476
17:00+27sse445741 0.0 1011958
20:00+22sse248397 0.0 101398
13 april, tue
tue1323:00+22sse2287100 0.0 101476
02:00+21sse1290100 0.0 101264
05:00+21sse1192100 0.0 101248
08:00+25sse137899 0.0 1014426
11:00+30se324884 0.0 10141517
14:00+31se544721 0.0 10121589
17:00+28se4362100 0.0 1011882
20:00+23e12889 0.1 101433
14 april, wed
wed1423:00+23nne249191 0.0 101592
02:00+22n249137 0.0 1014101
05:00+21n249240 0.0 101478
08:00+25nne357498 0.0 1015705
11:00+29nne555195 0.0 10161367
14:00+30nne665139 0.0 10141519
17:00+27nne676871 0.1 10131065
20:00+23nne48785 0.1 1015494
15 april, thu
thu1523:00+22nne387747 0.0 1015288
02:00+21nne257998 0.0 1014119
05:00+21nne37785 0.0 1014172
08:00+24ne46613 0.0 1016917
11:00+28ne54514 0.0 10161231
14:00+29ene54504 0.0 10141304
17:00+27ne44580 0.0 1013941
20:00+22ene36790 0.0 1015196
16 april, fri
fri1623:00+22ene25853 0.0 1015160
02:00+22e139273 0.1 101392
05:00+23e249152 0.1 1013147
08:00+25e237863 0.1 1015577
11:00+30se445831 0.1 10151303
14:00+31se55551 0.1 10131237
17:00
20:00+24e369111 0.2 1014208